Location: Navajo
(48.7922°N, 105.0603°W)
Time: 01:17:31
(UTC+00:00)

CUBEBUG 2 - Pass Details

Date: 02 July 2022
Orbit: 584 x 692 km, 97.7° (Epoch: 16 August)

Event Time Altitude Azimuth Distance (km) Brightness Sun altitude
Rises 09:07:29 0° 25° (NNE) 2,836 ? -13.1°
Reaches altitude 10° 09:10:03 10° 41° (NE) 1,940 ? -12.9°
Maximum altitude 09:13:21 22° 93° (E) 1,332 ? -12.6°
Drops below altitude 10° 09:16:41 10° 145° (SE) 1,966 ? -12.3°
Enters shadow 09:18:33 - 157° (SSE) 2,610 ? -12.2°
